Location: Dana
(41.8364°N, 106.7042°W)
Time: 15:09:02
(UTC+00:00)

Transit 2A - Pass Details

Date: 15 May 2026
Orbit: 595 x 948 km, 66.7° (Epoch: 8 June)

Event Time Altitude Azimuth Distance (km) Brightness Sun altitude
Rises 00:18:09 0° 248° (WSW) 3,579 10.5 20.7°
Reaches altitude 10° 00:21:15 10° 262° (W) 2,606 10.5 20.1°
Maximum altitude 00:26:04 24° 314° (NW) 1,744 9.0 19.2°
Drops below altitude 10° 00:30:39 10° 8° (N) 2,457 8.7 18.4°
Sets 00:33:30 0° 22° (NNE) 3,330 9.2 17.8°
